Location: Brachbach
(49.1847°N, 9.7240°E)
Time: 07:55:53
(UTC+00:00)

FO-29 - Pass Details

Date: 17 March 2026
Orbit: 801 x 1320 km, 98.5° (Epoch: 17 April)

Event Time Altitude Azimuth Distance (km) Brightness Sun altitude
Rises 04:40:43 0° 102° (ESE) 3,582 14.0 -9.0°
Reaches altitude 10° 04:44:04 10° 81° (E) 2,734 13.6 -8.4°
Maximum altitude 04:47:31 16° 46° (NE) 2,436 12.4 -7.9°
Drops below altitude 10° 04:51:10 10° 12° (NNE) 2,944 12.3 -7.3°
Sets 04:54:59 0° 353° (N) 4,012 12.7 -6.7°
